Weather Service Report


876 
ASUS45 KABQ 221210
RWRNM 
NEW MEXICO REGIONAL WEATHER ROUNDUP
NATIONAL WEATHER SERVICE ALBUQUERQUE NM
600 AM MDT MON OCT 22 2018

NOTE: "FAIR" MEANS FEW OR NO CLOUDS BELOW 12,000 FEET AGL WITH NO
       SIGNIFICANT WEATHER OR OBSTRUCTIONS TO VISION.

      THIS PRODUCT IS RELEASED AS TWO VERSIONS.  ONE VERSION NEAR
      THE TOP OF THE HOUR CONTAINING PRELIMINARY DATA FROM ALBUQUERQUE
      AND OTHER STATIONS.  A FINAL VERSION WITH ADDITIONAL DATA IS 
      ISSUED ABOUT 10 MINUTES AFTER THE HOUR.
 
NMZ501-503-504-510>518-221300-
NORTHWEST PLATEAU/NORTHCENTRAL MOUNTAINS
  
CITY           SKY/WX    TMP DP  RH WIND       PRES   REMARKS
FARMINGTON     FAIR      49  37  63 E7        30.17S                  
6HR MIN TEMP:  48; 6HR MAX TEMP:  58;                                

LOS ALAMOS     FAIR      48  37  67 CALM      30.27S                  
SANTA FE       FAIR      47  40  76 CALM      30.23S                  
6HR MIN TEMP:  44; 6HR MAX TEMP:  48;                                

TAOS           FAIR      40  32  73 E3        30.29S                  
ANGEL FIRE     FAIR      28  26  93 CALM      30.34S                  

$$
NMZ402-403-502-505>509-221300-
WESTCENTRAL MOUNTAINS/SOUTHWEST MOUNTAINS
  
CITY           SKY/WX    TMP DP  RH WIND       PRES   REMARKS
GALLUP         FAIR      41  37  86 E3        30.20F                  
6HR MIN TEMP:  40; 6HR MAX TEMP:  50;                                

GRANTS         LGT RAIN  46  43  91 E3        30.25S                  
SILVER CITY    FOG       50  49  98 CALM      30.18S VSB<1/4          

$$
NMZ407-409-411-412-221300-
SOUTHERN DESERTS
  
CITY           SKY/WX    TMP DP  RH WIND       PRES   REMARKS
DEMING         FAIR      52  51  97 E7        30.15S                  
6HR MIN TEMP:  52; 6HR MAX TEMP:  57; 6HR PCP:  0.16;                

LAS CRUCES     FAIR      53  53 100 CALM      30.16S                  
HOLLOMAN AFB   FAIR      55  50  84 W9        30.16F                  
ALAMOGORDO     FAIR      55  48  76 W12       30.14F                  
T OR C         FOG       53  53 100 CALM      30.16R VSB 1/4          
6HR MIN TEMP:  53; 6HR MAX TEMP:  62; 6HR PCP:  0.19;                


$$
NMZ519>523-221300-
CENTRAL VALLEYS/CENTRAL HIGHLANDS
  
CITY           SKY/WX    TMP DP  RH WIND       PRES   REMARKS
ALBUQUERQUE    CLOUDY    55  43  63 SE6       30.20S                  
6HR MIN TEMP:  51; 6HR MAX TEMP:  56;                                

DOUBLE EAGLE   MOCLDY    48  43  81 CALM      30.23R                  
MORIARTY ARPT  FAIR      41  41 100 N3        30.25S                  
6HR MIN TEMP:  38; 6HR MAX TEMP:  47;                                

CLINES CORNERS FAIR      43  40  89 NW12      30.25F                  
6HR MIN TEMP:  42; 6HR MAX TEMP:  46;                                

BELEN          CLOUDY    51  44  76 NW5       30.20F                  
6HR MIN TEMP:  50; 6HR MAX TEMP:  54;                                

SOCORRO        MOCLDY    53  49  85 E3        30.17F                  
6HR MIN TEMP:  51; 6HR MAX TEMP:  56;                                


$$
NMZ524>526-539-540-221300-
SOUTHCENTRAL MOUNTAINS
  
CITY           SKY/WX    TMP DP  RH WIND       PRES   REMARKS
RUIDOSO        LGT RAIN  46  45  93 N8        30.24F                  

$$
NMZ527>531-221300-
NORTHEAST HIGHLANDS/NORTHEAST PLAINS
  
CITY           SKY/WX    TMP DP  RH WIND       PRES   REMARKS
LAS VEGAS      FAIR      40  32  73 N3        30.23S                  
6HR MIN TEMP:  37; 6HR MAX TEMP:  45;                                

RATON          FAIR      37  34  89 NE10      30.20S WCI  30          
6HR MIN TEMP:  34; 6HR MAX TEMP:  42;                                

CLAYTON        FAIR      48  40  73 NW6       30.12S                  
6HR MIN TEMP:  45; 6HR MAX TEMP:  50;                                


$$
NMZ532>537-221300-
EASTCENTRAL PLAINS
  
CITY           SKY/WX    TMP DP  RH WIND       PRES   REMARKS
SANTA ROSA     FAIR      42  42  98 CALM      30.15F                  
TUCUMCARI      FAIR      44  41  89 W5        30.11F                  
6HR MIN TEMP:  44; 6HR MAX TEMP:  54;                                

CANNON AFB     CLEAR     46  41  82 W6        30.17S                  
6HR MIN TEMP:  44; 6HR MAX TEMP:  47;                                

CLOVIS AIRPORT FAIR      41  39  93 SW6       30.15F                  

$$
NMZ028-029-538-221300-
SOUTHEAST PLAINS
  
CITY           SKY/WX    TMP DP  RH WIND       PRES   REMARKS
ROSWELL        FAIR      48  46  93 NE3       30.15R                  
6HR MIN TEMP:  48; 6HR MAX TEMP:  51;                                

ARTESIA        FAIR      48  48 100 S5        30.15S                  
CARLSBAD       FAIR      47  46  97 CALM      30.13S                  
6HR MIN TEMP:  47; 6HR MAX TEMP:  52;                                

HOBBS          CLEAR     45  43  93 CALM      30.17S                  


$$
  

Return to Home page


Western Regional Climate Center, wrcc@dri.edu